Regional Weather Roundup
Issued by NWS Charleston, SC

Current Version | Previous Version | Graphics & Text | Print | Product List | Glossary On
Versions: 1 2 3 4 5 6 7 8 9 10 11 12 13 14 15 16 17 18 19 20 21 22 23 24 25 26 27 28 29 30 31 32 33 34 35 36 37 38 39 40 41 42 43 44 45 46 47 48 49 50
000
ASUS42 KCHS 220310
RWRCHS
REGIONAL WEATHER ROUNDUP
NATIONAL WEATHER SERVICE CHARLESTON SC
1000 PM EST SUN DEC 21 2014

NOTE: "FAIR" INDICATES FEW OR NO CLOUDS BELOW 12,000 FEET WITH NO
SIGNIFICANT WEATHER AND/OR OBSTRUCTIONS TO VISIBILITY.

NOT ALL STATIONS ARE QUALITY CONTROLLED BY THE NATIONAL
WEATHER SERVICE. USE DATA WITH CAUTION...ESPECIALLY
DEWPOINT OBSERVATIONS.

SCZ027-030-031-034>040-042>050-220400-
...SOUTHEAST SOUTH CAROLINA...

CITY           SKY/WX    TMP DP  RH WIND       PRES   REMARKS
N CHARLESTON   HVY RAIN  47  45  93 NE5       30.12F
WATERFRONT PRK NOT AVBL
MOUNT PLEASANT RAIN      48  48 100 CALM      30.11F
PINOPOLIS        N/A     48  45  87 NE9       30.07F
MONCKS CORNER  LGT RAIN  48  45  87 NE6       30.12F
SUMMERVILLE    DRIZZLE   46  46 100 NE6       30.14R
BEAUFORT MCAS  RAIN      48  46  93 N5        30.11F FOG
BEAUFORT ARPT  RAIN      48  48 100 N9        30.11S
HILTON HEAD IS RAIN      48  48 100 N7        30.13R
WALTERBORO     RAIN      46 N/A N/A NW6       30.14R
ALLENDALE      CLOUDY    46  46 100 NE6       30.12F FOG

...SOUTHERN MIDLANDS AND PEE DEE...

CITY           SKY/WX    TMP DP  RH WIND       PRES   REMARKS
GEORGETOWN     NOT AVBL
KINGSTREE      NOT AVBL
ORANGEBURG     HVY RAIN  47  43  86 NE6       30.15F FOG
BARNWELL       LGT RAIN  46  46 100 NE7       30.15F
AIKEN          HVY RAIN  46  46 100 E6        30.19R
MANNING        NOT AVBL
COLUMBIA       LGT RAIN  49  45  86 NE5       30.16F
SUMTER         CLOUDY    48  43  81 NE5       30.15S
FLORENCE       CLOUDY    49  37  63 E12G22    30.17F
MYRTLE BEACH   CLOUDY    46  41  81 N13       30.17F
N MYRTLE BEACH CLOUDY    45  42  89 NE9       30.16F

$$

GAZ063-065-086>088-099>101-113>116-118-119-134>141-150-220400-
...SOUTHEAST GEORGIA...

CITY           SKY/WX    TMP DP  RH WIND       PRES   REMARKS
SAVANNAH ARPT  LGT RAIN  47  45  93 NE8       30.09F FOG
HUNTER AAF     CLOUDY    48  48 100 E6        30.06F
FORT STEWART   CLOUDY    47  46  94 N9        30.07S
STATESBORO     RAIN      46  46 100 E3        30.10F
SYLVANIA       DRIZZLE   46  46 100 E7        30.11F
CLAXTON        CLOUDY    46  46 100 NE6       30.11F

...CSRA...CENTRAL AND FAR SOUTHEAST GEORGIA...

CITY           SKY/WX    TMP DP  RH WIND       PRES   REMARKS
THOMSON        CLOUDY    49  49  99 E6        30.18F
AUGUSTA-BUSH   CLOUDY    48  46  93 NE5       30.14F
AUGUSTA-DANIEL CLOUDY    48  46  93 NE8       30.14F
SWAINSBORO     LGT RAIN N/A N/A N/A NE9       30.11F
VIDALIA        CLOUDY    46  46 100 E9        30.10S
EASTMAN        CLOUDY    47  47 100 E5        30.12F FOG
HAZLEHURST     CLOUDY    49  49 100 NE6       30.09S
ALMA           CLOUDY    49  47  93 VRB3      30.08R
WAYCROSS       CLOUDY    54  53  97 NE3       30.08R
JESUP          CLOUDY    52  50  93 E6        30.08S
BAXLEY         CLOUDY    50  48  93 NE6       30.09S
BRUNSWICK      CLOUDY    54  52  94 NE8       30.06F
SAINT SIMONS   LGT RAIN  55  54  96 N8        30.07F

$$

SCZ027-028-034-036>038-045-046-048>050-GAZ119-141-220400-
...LAKE AND SUPPLEMENTAL COASTAL OBSERVATIONS...

STATION/POSITION TIME  TEMP    WIND        PRES    WAVE   SWELL
                       AIR SEA DIR/SP/G            HT/PER HT/PER/DIR
                 (UTC) (F)     (DEG/KT/KT) (MB)    (FT/S) (FT/S/D)
UPR LAKE MARION  NOT AVBL
WINYAH BAY       0200   49      40/ 12     1020.0S
LAKE MURRAY      0200   47      30/  4/  6 1020.7F
ACE BASIN NERRS  0200   47      30/  4     1019.0S
FORT PULASKI     0300   50 56   30/  9/ 11 1019.5F
SAPELO ISLAND    0200   54      30/ 10     1019.0S

$$

ANZ835-935-AMZ111-154-330-350-352-354-370-450-454-472-220400-
...C-MAN AND BUOY OBSERVATIONS...

STATION/POSITION TIME  TEMP    WIND        PRES    WAVE   SWELL
                       AIR SEA DIR/SP/G            HT/PER HT/PER/DIR
                 (UTC) (F)     (DEG/KT/KT) (MB)    (FT/S) (FT/S/D)
BUOY 41004       0300   64 68   40/ 21/ 25 1017.9S   7/ 7   2/14
BUOY 41008       0300   60 59   60/ 14/ 16 1017.4F   5/ 7   3/ 60/ 7
FOLLY BEACH CMAN 0200   51      50/ 21/ 23 1019.7F
CAPERS NEARSHORE 0200   51      60/ 21/ 27   N/A
FRIPP NEARSHORE  NOT AVBL


STATION/POSITION TIME  TEMP    WIND        PRES    WAVE   SWELL
                       AIR SEA DIR/SP/G            HT/PER HT/PER/DIR
                 (UTC) (F)     (DEG/KT/KT) (MB)    (FT/S) (FT/S/D)
5E ST. MARYS GA  0300      61                N/A     4/ 6
FRYING PAN BUOY  0300   59 71   40/ 21/ 27 1020.0F   8/ 7   2/120/11
BUOY 41025       0300   57                 1022.0F   4/ 5
CAPE LOOKOUT NC  0200   46      20/ 15/ 20 1022.3S
BUOY 41002       0242   71 71   80/ 16/ 19 1019.2R   6/ 7   2/100/ 9
BUOY 41010       0300   75 77  180/ 12/ 16 1018.4R   4/ 7   3/ 30/ 7
ST AUGUSTINE FL  0300   60     340/  6/  8 1018.6S


$$


USA.gov is the U.S. government's official web portal to all federal, state and local government web resources and services.